sat.trackr.live / text

‹ back to catalog

STARLINK-3145

NORAD 49455 · 2021-104AZ

PAYLOAD ACTIVE UNKNOWN

§ Identity

Operator
Country
US
Launch date
2021-11-13
Launch site
AFETR
Launch vehicle
Mass (kg)
RCS (m²)

Purposes: comms

External: N2YO · Heavens-Above · Gunter

§ Orbital elements

Epoch: 2026-09-20T03:43:17.817312Z

Period
93.85 min
Inclination
53.1603°
Eccentricity
0.0000782
Mean motion
15.34390282 rev/d
Perigee alt
462.2 km
Apogee alt
463.3 km
Semi-major
6,840.9 km
B*
5.8606e-5
RAAN
52.9826°
Arg perigee
81.1066°
Mean anomaly
279.0025°
Rev number
26,831

§ Raw data

STARLINK-31451 49455U 21104AZ  26263.15506733  .00001604  00000+0  58606-4 0  99932 49455  53.1603  52.9826 0000782  81.1066 279.0025 15.34390282268310

JSON: /api/v1/satellites/49455 · /tle

For live sub-satellite position, see the globe view (requires WebGL).

§ Visibility from observer

Set your observer location to see the next 7 days of passes ≥ 10°. The values pass through the URL so the page stays shareable.

No JS? Fill the form by hand. The geolocation button needs JavaScript.